CAPE
148 951 1083 1270 1292 1331 1598 1593 1750 1796 1869 1861 1593 1528 1561 1481 1214 1811 1736 1640 1528 1703 1729 1345 980 1528 1440 1119 1099 1050 1515 1485 1557 1699 1709 1607 1921 1772 2046 2174 1831 1555 1876
437 1091 1323 1132 1263 1438 1505 1608 1748 1666 1755 1512 1497 1467 2040 1963 1679 1637 1831 1659 1628 1574 1126 1018 1411 1401 1193 1228 1227 1473 1634 1685 1639 1661 1634 1366 1546 1660 1635 2062 1808 1954 1985
633 1183 1194 1378 1665 1709 1754 1594 1737 1796 1901 1864 1841 1780 1869 1821 1854 1738 1833 1877 1639 1690 1392 1495 1476 1321 1265 1285 1419 1375 1429 1439 1494 1547 1343 1188 921 1495 1725 1711 1872 2063 2173
964 1310 1487 1397 1602 1500 1563 1757 1911 1835 2005 1993 1948 1987 1837 1868 1679 1638 1507 1557 1370 1341 1392 1183 1071 1159 1183 1379 1494 1623 1533 1343 1071 711 589 743 624 1468 1644 1665 1786 1790 1905
1156 1299 1373 1489 1552 1394 1473 1683 1792 1933 1947 1958 1994 1844 1724 1849 1855 1894 1596 1411 1297 1372 1337 1176 1033 952 935 890 859 967 1057 1305 1570 1423 604 688 742 1192 1367 1227 1331 1540 1423
1164 1443 1260 1384 1478 1611 1577 1128 1850 1998 1851 1844 1919 1854 1720 1897 1663 1196 1072 906 843 839 889 1006 1002 891 716 901 1140 1087 1433 1505 1774 1365 928 343 569 995 1331 1201 1106 1370 1513
993 1258 1159 1528 1310 709 1334 1141 525 1735 1807 1667 1790 1814 1939 1539 1314 1137 893 754 874 1049 911 744 684 1075 1038 1005 851 1039 1074 655 759 1181 1323 851 634 1330 1386 1538 1361 1252 1288
847 1014 1290 1398 864 859 1355 1805 702 1029 1497 1454 1741 1755 1552 1447 1197 950 776 615 632 807 810 768 665 805 810 720 575 494 795 552 563 821 1074 952 512 1359 1494 1043 1239 847 982
1165 1111 1309 413 742 1304 1617 1878 999 999 1190 1361 1328 1355 1288 1110 951 771 609 446 339 276 372 454 503 458 331 289 236 259 469 813 632 604 271 348 185 946 1103 1058 1090 851 914
989 944 783 832 1470 1433 856 1209 1526 1238 1039 1100 1131 985 868 911 831 598 311 340 279 154 159 217 231 306 379 351 451 650 1004 946 496 537 527 194 101 127 264 1290 1227 1050 1205
766 563 393 742 1136 1060 782 730 861 967 900 872 901 827 776 729 860 767 335 429 490 311 215 201 276 615 396 499 616 448 769 825 838 608 411 84 131 109 273 617 467 168 219
222 257 457 397 399 592 648 1100 1300 1149 1081 1204 1260 1710 1606 1660 1458 1083 911 902 1090 842 647 913 914 1560 454 560 649 392 351 478 628 404 346 100 89 262 256 1009 117 530 472
75 111 263 299 480 712 926 1266 1394 1377 1407 1501 1562 1700 1649 1716 1767 1826 2295 2056 2044 1672 1921 1069 1974 1796 857 639 550 499 411 406 355 222 123 88 90 175 171 422 11 80 82
12 0 36 210 359 636 602 905 999 1190 1179 750 1192 1475 1201 1315 1599 1550 1578 1651 1789 1796 1471 948 1508 1860 1375 274 147 340 476 301 198 342 175 18 84 79 470 277 283 234 79
0 0 54 139 267 466 615 487 798 1087 1221 768 251 437 563 1015 1039 1534 1332 1457 1389 534 477 1029 1773 1202 303 340 360 379 212 167 205 275 344 102 142 187 233 786 722 522 224
0 0 0 75 120 285 461 585 527 674 1067 468 105 34 86 618 1198 1247 1356 1362 1258 1133 1135 1063 624 206 197 155 231 255 595 552 679 697 668 745 286 323 403 719 1047 1383 1412
0 0 0 0 47 119 222 470 665 596 643 654 220 491 13 483 1150 1367 988 834 898 1147 974 654 390 428 415 440 563 470 725 864 1011 1034 957 763 655 315 271 467 733 957 1064
0 0 0 0 0 0 179 593 640 690 535 451 75 489 981 363 851 915 793 1015 819 999 883 584 607 665 934 1140 944 866 876 858 1089 1084 1111 958 937 862 654 261 357 776 982
169 1 0 0 0 89 530 486 551 574 564 817 635 321 904 492 1086 696 514 1106 1095 1105 854 766 1108 1036 1030 1018 587 521 814 730 739 740 922 950 1198 1049 871 523 386 411 686
320 246 50 0 34 427 526 256 572 870 827 855 784 683 950 1069 1030 815 963 1117 1028 994 1137 904 1166 1366 1228 1227 836 727 899 837 856 847 766 904 921 894 943 869 1121 993 424
360 354 220 88 270 463 474 390 960 861 688 861 1022 954 966 1244 1260 1021 902 1464 1355 1238 1383 1191 1215 1204 1173 1159 1178 874 723 710 600 676 878 811 722 687 817 813 803 839 895
334 381 383 321 146 519 668 768 989 1076 1112 1103 1059 1063 932 987 1002 1156 1098 1112 1115 1287 1003 1232 1461 919 926 1309 1051 888 637 495 739 621 699 614 609 677 732 864 1208 990 792
397 403 382 386 251 352 725 785 935 995 1003 875 986 854 762 750 666 610 393 475 557 792 760 934 966 584 568 1029 1340 1111 333 237 524 656 883 942 1048 608 559 954 1212 1282 1313
204 452 512 544 299 273 787 732 782 697 773 655 786 781 713 956 599 276 312 582 596 427 413 466 582 857 951 593 931 441 837 805 601 563 629 632 271 14 0 164 20 936 1444
272 422 493 612 578 458 557 699 853 1075 1070 947 828 488 468 401 158 101 70 63 34 28 20 29 0 0 35 72 1 16 89 275 196 76 0 0 0 0 1 0 207 0 1118
397 564 577 540 654 606 598 716 834 940 818 679 389 364 80 17 0 0 0 0 0 0 0 0 0 0 0 0 0 0 0 0 0 0 0 0 0 0 0 0 0 14 34
CIN
-58 -3 -1 -0 -0 -0 -0 -0 -0 -0 -0 -0 -1 -0 -0 -1 -5 -1 -0 -0 -0 -0 -0 -0 -3 -1 -0 -0 -0 -1 -0 -0 -0 -0 -0 -1 -1 -0 -0 -0 -0 -1 -0
-29 -0 -1 -2 -1 -2 -1 -0 -0 -0 -0 -0 -1 -2 -0 -0 -1 -0 -0 -0 -0 -0 -1 -4 -1 -1 -0 -0 -0 -0 -0 -0 -0 -0 -0 -3 -2 -0 -0 -0 -0 -0 -0
-16 -0 -0 -0 -0 -0 -0 -0 -1 -0 -0 -0 -0 -0 -0 -0 -0 -0 -0 -0 -0 -0 -0 -0 -0 -0 -0 -0 -0 -0 -0 -0 -0 -0 -3 -0 -0 -0 -0 -0 -0 -0 -0
-3 -0 -0 -1 -1 -1 -2 -0 -0 -0 -0 -0 -0 -0 -0 -0 -0 -0 -0 -0 -0 -1 -1 -7 -10 -5 -3 -0 -0 -0 -0 -0 -3 -19 -23 -5 -3 -1 -1 -0 -0 -4 -0
-0 -0 -0 -0 -1 -2 -0 -0 -0 -0 -0 -0 -0 -0 -0 -0 -0 -0 -0 -0 -2 -4 -4 -11 -24 -24 -29 -25 -22 -20 -12 -2 -0 -1 -33 -14 -4 -2 -0 -1 -1 -0 -1
-0 -0 -0 -0 -0 -0 -0 -11 -0 -0 -0 -0 -0 -0 -0 -0 -0 -2 -1 -17 -35 -41 -39 -43 -48 -60 -77 -62 -35 -39 -19 -13 -3 -1 -29 -92 -45 -13 -0 -1 -1 -0 -0
-3 -0 -0 -0 -3 -29 -2 -11 -67 -0 -0 -0 -0 -0 -0 -0 -2 -3 -19 -55 -53 -27 -73 -94 -100 -58 -65 -63 -69 -64 -65 -91 -64 -50 -39 -69 -69 -6 -0 -1 -0 -0 -1
-8 -1 -0 -0 -13 -16 -2 -0 -53 -21 -1 -2 -0 -2 -6 -9 -23 -51 -78 -113 -109 -95 -103 -106 -123 -106 -98 -100 -110 -116 -100 -115 -81 -81 -51 -34 -81 -10 -10 -31 -2 -14 -10
-0 -0 -0 -47 -11 -2 -0 -0 -26 -41 -28 -22 -36 -31 -32 -51 -74 -104 -129 -161 -178 -199 -179 -161 -143 -149 -166 -160 -165 -157 -143 -124 -82 -83 -101 -86 -173 -66 -57 -37 -25 -19 -7
-0 -0 -6 -8 -0 -0 -9 -7 -4 -29 -56 -63 -60 -82 -100 -89 -96 -130 -197 -198 -210 -227 -226 -202 -183 -173 -165 -171 -157 -142 -111 -121 -80 -99 -88 -138 -200 -204 -151 -20 -0 -3 -2
-5 -23 -44 -5 -0 -4 -30 -50 -55 -55 -81 -89 -78 -98 -107 -94 -95 -111 -173 -177 -166 -185 -210 -197 -186 -140 -177 -168 -169 -196 -160 -82 -84 -104 -95 -218 -200 -187 -157 -110 -78 -123 -99
-101 -92 -38 -50 -61 -41 -34 -11 -10 -21 -44 -52 -55 -40 -44 -55 -74 -94 -114 -127 -110 -138 -159 -138 -132 -94 -176 -116 -118 -179 -133 -112 -106 -108 -118 -242 -227 -197 -135 -63 -114 -70 -65
-123 -125 -93 -76 -54 -17 -19 -11 -10 -20 -43 -49 -58 -57 -70 -64 -63 -62 -45 -48 -54 -77 -59 -127 -72 -69 -123 -167 -168 -169 -179 -155 -112 -130 -212 -289 -263 -205 -184 -122 -219 -207 -143
-157 -0 -105 -96 -76 -44 -47 -36 -36 -34 -46 -71 -73 -74 -89 -83 -71 -75 -66 -67 -71 -68 -97 -147 -76 -76 -108 -217 -214 -178 -161 -171 -171 -129 -202 -334 -277 -251 -150 -166 -134 -149 -158
-0 -0 -94 -98 -78 -65 -54 -63 -54 -39 -43 -62 -111 -123 -110 -76 -80 -67 -62 -67 -83 -151 -173 -114 -86 -136 -228 -173 -166 -146 -175 -195 -188 -147 -141 -275 -263 -226 -204 -126 -130 -111 -152
-0 -0 -0 -96 -94 -74 -64 -62 -61 -55 -53 -95 -134 -169 -183 -98 -72 -51 -42 -46 -67 -91 -105 -104 -153 -202 -195 -195 -138 -158 -126 -134 -122 -134 -139 -136 -258 -238 -220 -167 -109 -69 -64
-0 -0 -0 -0 -54 -87 -70 -61 -48 -57 -55 -66 -91 -91 -32 -105 -72 -63 -49 -47 -62 -75 -103 -131 -147 -147 -122 -121 -112 -93 -95 -98 -86 -104 -126 -141 -143 -236 -255 -218 -181 -156 -133
-0 -0 -0 -0 -0 -0 -78 -54 -51 -42 -58 -71 -100 -69 -58 -87 -68 -58 -52 -42 -69 -79 -79 -89 -93 -79 -77 -74 -89 -79 -81 -76 -65 -72 -79 -90 -101 -94 -149 -215 -238 -210 -183
-66 -12 -0 -0 -0 -73 -59 -68 -61 -51 -54 -44 -49 -65 -52 -60 -44 -52 -52 -40 -63 -50 -67 -57 -48 -64 -49 -51 -67 -68 -80 -82 -86 -66 -78 -69 -65 -68 -71 -119 -161 -216 -210
-44 -56 -51 -0 -69 -48 -51 -83 -65 -49 -46 -50 -49 -47 -39 -35 -41 -39 -38 -41 -55 -45 -44 -55 -44 -41 -36 -36 -53 -74 -75 -80 -89 -103 -97 -57 -58 -55 -45 -65 -53 -63 -166
-38 -45 -60 -76 -52 -53 -47 -47 -33 -20 -31 -42 -50 -73 -61 -51 -40 -50 -43 -33 -35 -22 -19 -27 -21 -18 -9 -20 -13 -32 -60 -69 -74 -83 -62 -63 -51 -54 -56 -60 -46 -45 -44
-43 -59 -56 -63 -62 -48 -42 -37 -31 -26 -34 -52 -70 -83 -92 -94 -89 -69 -65 -55 -56 -26 -12 -27 -20 -19 -17 -14 -5 -7 -38 -65 -64 -52 -46 -53 -61 -58 -53 -57 -52 -61 -52
-60 -63 -63 -64 -68 -58 -47 -44 -33 -44 -44 -41 -59 -78 -110 -115 -120 -125 -139 -113 -102 -78 -59 -54 -40 -26 -17 -16 -4 -0 -45 -56 -66 -64 -54 -40 -61 -92 -88 -59 -47 -51 -54
-98 -84 -74 -61 -79 -72 -50 -34 -25 -14 -13 -17 -17 -95 -109 -72 -97 -121 -122 -92 -93 -92 -75 -71 -59 -30 -20 -29 -7 -33 -1 -0 -5 -66 -65 -77 -140 -21 -0 -157 -32 -58 -44
-89 -91 -101 -83 -68 -71 -60 -42 -31 -13 -14 -18 -74 -110 -100 -85 -102 -117 -127 -151 -164 -174 -192 -178 -0 -0 -122 -92 -8 -88 -88 -21 -38 -87 -0 -0 -0 -0 -90 -0 -106 -3 -45
-111 -102 -99 -90 -69 -79 -57 -49 -35 -21 -11 -36 -87 -81 -130 -109 -0 -0 -0 -0 -0 -0 -0 -0 -0 -0 -0 -0 -0 -0 -0 -0 -0 -0 -0 -0 -0 -0 -0 -0 -0 -126 -24
Wind_Speed
25 22 20 18 15 17 14 20 21 21 20 21 22 22 21 19 22 22 28 27 27 26 29 29 28 25 21 23 20 8 10 27 27 25 21 19 18 15 15 13 15 15 14
26 24 22 20 21 14 20 23 22 23 22 20 20 20 19 16 13 5 16 25 27 29 27 26 26 27 21 17 15 14 21 28 27 27 26 23 17 17 15 11 8 12 11
26 26 23 23 22 22 22 20 20 14 18 19 18 18 15 13 6 12 20 28 28 24 25 27 26 26 23 21 21 21 22 22 26 26 21 20 22 23 17 7 7 9 10
26 27 23 19 23 24 23 24 24 21 17 21 20 17 15 5 11 21 26 28 25 25 25 27 27 28 26 25 22 22 22 23 25 23 21 18 20 20 18 18 15 7 15
26 26 25 24 23 23 23 23 24 23 24 23 22 22 25 24 21 22 23 20 22 23 25 26 27 27 26 24 22 19 18 19 19 20 22 20 19 20 19 19 19 18 18
25 24 23 23 23 23 23 23 24 24 26 26 26 25 24 26 24 24 22 20 21 22 24 25 25 25 24 23 21 19 17 18 19 20 20 21 20 20 19 18 16 16 17
24 23 23 23 23 23 23 24 24 23 23 22 21 22 25 25 26 25 21 21 21 22 23 24 24 23 22 21 20 19 18 21 21 21 21 20 20 20 18 17 18 17 19
23 22 22 23 23 24 23 24 25 25 25 24 24 25 25 26 26 24 22 20 18 20 22 23 23 22 21 21 20 19 19 19 20 22 22 20 18 18 18 17 17 16 15
22 22 23 23 24 23 22 27 26 26 26 27 27 27 25 25 24 23 21 19 19 21 22 22 22 21 19 19 18 18 19 20 20 21 22 21 19 16 16 18 18 17 15
21 22 23 22 23 22 24 25 26 26 27 27 28 27 26 25 24 22 22 22 21 21 22 21 20 18 17 15 15 14 15 17 18 20 21 23 22 19 17 17 15 14 15
21 23 21 22 23 23 24 26 27 26 27 28 27 26 25 24 23 21 21 21 22 21 20 20 18 16 13 12 13 12 12 14 15 18 20 22 21 20 16 18 16 13 13
23 24 24 25 26 26 25 26 26 26 25 25 24 23 22 21 21 20 19 19 19 20 19 17 16 15 14 11 12 12 12 11 14 18 20 20 19 18 18 20 14 12 11
25 26 27 27 27 27 26 27 25 24 24 24 23 22 19 20 20 20 19 20 19 19 18 17 17 17 15 11 11 11 13 12 13 16 18 17 16 15 15 17 17 21 10
27 28 28 28 28 27 26 26 25 23 23 21 21 22 19 18 19 21 20 19 18 17 17 17 16 14 14 14 11 14 13 12 13 17 18 16 14 13 12 13 12 13 9
28 28 28 27 28 27 25 25 24 23 23 22 22 21 18 18 17 18 20 19 17 15 16 15 14 13 12 12 11 11 16 12 12 15 14 13 12 11 11 12 12 11 11
28 29 28 28 27 26 25 25 24 23 22 21 21 21 19 17 17 20 18 18 17 15 14 14 13 12 13 10 11 11 17 11 9 9 9 12 10 10 10 10 11 10 11
27 27 28 27 26 26 25 24 25 24 22 22 20 20 21 19 17 19 18 17 15 14 12 12 12 12 11 10 9 13 11 9 9 16 21 20 19 12 12 10 9 9 9
27 27 26 27 26 26 26 25 25 26 25 23 21 21 21 21 20 19 19 19 18 13 11 8 18 21 10 8 16 22 22 15 16 17 20 21 21 19 15 15 12 8 8
28 27 27 26 27 26 26 24 26 27 27 25 23 21 21 21 20 14 10 8 8 8 8 10 17 22 25 24 23 24 26 26 26 22 23 23 22 23 20 20 19 11 7
28 29 30 28 26 25 25 24 24 26 26 22 22 21 21 10 12 18 19 20 7 8 7 12 20 23 25 25 23 25 26 28 26 24 21 24 22 24 20 22 21 19 12
29 30 31 31 30 22 10 16 23 27 18 14 19 20 7 22 23 17 22 22 18 10 12 17 21 24 25 25 25 26 26 26 27 19 25 26 27 26 25 26 22 22 18
26 30 29 26 17 11 10 6 7 12 12 13 13 14 15 14 16 18 18 19 20 20 17 18 18 20 21 22 25 28 27 27 18 27 25 28 25 28 29 28 28 24 20
23 21 23 22 18 10 8 9 17 18 16 14 14 16 18 18 19 19 19 19 18 19 18 20 23 23 20 21 23 22 24 24 31 20 26 25 27 29 29 29 28 27 25
22 17 16 12 9 9 7 11 7 4 5 10 15 15 17 17 19 19 19 18 18 19 18 19 19 20 20 21 22 23 22 24 25 28 26 27 28 29 28 26 29 28 26
10 10 8 8 8 9 10 10 9 13 15 15 14 15 16 16 17 18 17 16 17 17 17 17 18 20 20 19 21 23 19 23 23 25 30 29 29 24 25 31 25 27 25
5 5 4 6 9 12 14 14 13 13 12 12 12 13 13 16 17 19 19 18 18 16 16 16 17 19 19 20 20 21 20 23 26 26 29 33 32 28 33 25 30 24 25
Wind_Direction
141 155 163 171 179 171 170 61 61 57 53 60 65 64 61 52 63 63 98 93 79 71 91 89 94 67 47 56 47 11 14 83 83 72 49 35 35 21 20 19 38 37 37
123 145 155 163 158 179 58 74 67 69 65 55 57 57 54 43 33 352 40 71 84 87 119 121 122 117 141 149 154 154 132 99 99 91 76 50 20 26 24 1 339 20 22
115 132 151 151 147 72 76 60 57 31 48 54 51 52 42 35 8 175 69 91 85 134 128 123 126 128 134 138 136 134 127 122 110 108 125 126 113 94 34 316 336 4 8
113 130 156 166 125 108 91 102 99 69 47 64 61 51 43 4 172 152 129 120 136 135 135 128 125 125 126 126 127 126 123 120 108 114 121 131 122 125 142 155 174 354 39
111 125 130 120 102 97 103 91 101 88 90 77 70 68 133 142 153 147 144 152 149 144 139 132 128 124 124 124 124 128 132 128 122 116 111 121 125 126 136 141 150 160 163
111 133 97 104 104 101 97 98 123 131 121 120 116 133 141 136 144 141 148 155 155 150 144 139 134 130 127 125 123 124 127 126 125 124 124 119 125 124 133 137 148 160 165
105 114 112 111 104 104 103 126 139 142 143 147 153 147 139 140 138 142 154 154 154 153 149 143 139 136 131 128 127 125 123 117 114 120 122 123 121 122 128 135 135 145 141
104 104 105 104 108 112 126 137 138 139 139 144 147 145 142 140 139 145 154 158 163 158 153 147 142 137 133 129 126 121 118 120 115 111 114 117 125 126 131 134 138 150 155
102 104 111 133 115 135 147 128 138 142 141 140 140 141 144 145 147 152 158 165 163 159 155 151 145 141 140 136 130 124 118 115 117 111 108 112 119 130 138 121 123 140 152
97 114 143 154 132 153 148 148 147 150 148 145 142 143 145 145 147 155 157 158 160 160 157 154 155 153 150 150 144 140 131 122 119 112 106 103 104 114 116 119 136 150 148
111 152 175 163 151 160 159 149 151 154 154 148 146 147 147 149 153 158 161 161 159 163 163 161 160 163 170 173 164 160 151 138 124 111 105 101 106 104 120 118 113 140 156
139 156 164 153 152 157 158 154 156 157 162 160 159 161 162 164 164 167 170 174 172 169 169 179 180 181 169 185 176 169 161 153 123 104 97 99 114 114 105 80 88 153 170
150 151 145 143 153 159 161 155 161 166 168 169 168 167 177 181 176 174 174 175 178 170 174 179 171 159 165 209 175 169 142 143 118 96 83 98 103 115 112 95 124 69 140
151 146 145 146 151 161 165 165 164 172 176 179 175 169 174 180 180 173 171 171 181 182 191 193 177 174 206 222 166 76 117 128 108 77 74 86 98 109 131 120 113 129 143
153 151 151 157 161 165 171 173 179 180 177 175 175 169 179 184 194 191 177 183 190 215 208 183 182 185 175 186 156 116 45 118 114 74 92 89 97 96 118 136 126 122 138
149 152 152 159 163 173 180 181 185 190 193 194 187 181 189 202 198 170 129 150 167 156 109 153 157 158 125 157 202 165 263 169 163 195 140 76 90 98 100 122 153 138 156
153 150 157 164 171 176 184 191 194 200 204 200 205 203 187 200 227 184 188 176 167 147 99 97 123 104 118 97 138 68 187 214 91 32 359 15 26 91 86 93 137 149 139
157 156 155 166 174 185 194 205 204 203 204 206 214 222 225 212 232 244 251 240 275 190 141 108 341 275 4 9 353 328 320 16 15 12 360 356 9 20 47 47 73 123 143
168 163 163 163 176 184 200 213 209 205 204 223 222 194 221 244 263 316 271 152 64 68 100 46 345 320 281 268 259 271 291 303 311 337 334 337 341 353 5 12 24 64 109
178 180 183 179 178 182 205 215 210 212 227 258 258 266 261 344 328 290 291 266 69 120 130 4 327 316 296 283 262 264 271 288 310 319 335 325 336 335 355 355 0 13 42
189 189 192 193 197 171 129 146 179 211 276 291 286 282 349 273 268 305 230 275 318 20 356 335 320 311 292 313 276 283 273 292 300 340 313 309 312 320 328 331 342 349 3
184 192 189 184 171 161 154 132 318 306 306 302 309 311 313 317 310 310 316 313 312 316 333 333 333 331 334 332 317 296 302 288 344 296 317 310 323 304 304 314 319 330 343
187 184 186 185 180 181 177 290 285 289 295 300 305 300 300 306 301 309 312 316 323 327 329 320 310 315 330 330 332 334 329 323 297 331 316 322 319 315 312 306 312 319 323
189 182 184 190 204 205 239 279 271 242 273 301 298 301 306 316 305 310 313 318 322 326 324 322 327 334 333 331 330 332 331 320 318 312 310 304 308 307 316 317 304 309 318
183 181 189 206 221 238 250 265 270 279 285 296 301 301 307 318 325 315 321 325 326 332 331 334 334 335 338 341 342 334 347 322 320 318 310 302 299 314 312 307 321 316 319
183 188 197 223 249 264 263 267 270 270 280 289 297 301 308 313 316 309 310 319 329 331 335 345 339 340 338 345 349 348 351 324 310 320 315 308 308 315 300 319 311 325 320